This demonstration page uses our WeatherBlox Daily Observations layout. Learn more.

Hourly Observations for May 11, 2019

Temp ( °F °C ) Dew Point ( °F °C ) Humidity (%) Winds ( mph kmh ) Pressure ( in mb ) Visibility ( mi km ) Precip ( " mm )
12:54 am 00:54 Cloudy 51 10.6 43 6.1 74 74 S 6 9 30.08 1019 10 16.0934 0 0
1:54 am 01:54 Mostly Cloudy 50 10 43 6.1 77 77 SSW 6 9 30.06 1018 10 16.0934 0 0
2:54 am 02:54 Clear 50 10 42 5.6 74 74 SSW 5 7 30.05 1018 10 16.0934 0 0
3:54 am 03:54 Clear 47 8.3 41 5 80 80 S 5 7 30.04 1017 10 16.0934 0 0
4:54 am 04:54 Cloudy 47 8.3 42 5.6 83 83 S 6 9 30.03 1017 10 16.0934 0 0
5:54 am 05:54 Cloudy 48 8.9 44 6.7 86 86 SSE 5 7 30.01 1016 10 16.0934 0 0
6:54 am 06:54 Cloudy 49 9.4 44 6.7 83 83 SSE 6 9 30.01 1016 10 16.0934 0 0
7:54 am 07:54 Cloudy 50 10 45 7.2 83 83 SSE 6 9 30.01 1016 10 16.0934 0 0
8:54 am 08:54 Cloudy 54 12.2 46 7.8 75 75 S 10 17 29.99 1016 10 16.0934 0 0
9:54 am 09:54 Partly Cloudy 56 13.3 46 7.8 70 70 S 8 13 29.98 1015 10 16.0934 0 0
10:54 am 10:54 Mostly Sunny 59 15 46 7.8 62 62 SSE 12 19 29.96 1015 10 16.0934 0 0
11:54 am 11:54 Partly Cloudy 62 16.7 44 6.7 52 52 SSE 15 24 29.93 1013 10 16.0934 0 0
12:54 pm 12:54 Mostly Cloudy 60 15.6 43 6.1 53 53 S 15 24 29.92 1013 10 16.0934 0 0
1:54 pm 13:54 Cloudy 61 16.1 42 5.6 50 50 S 14 22 29.91 1013 10 16.0934 0 0
2:54 pm 14:54 Mostly Cloudy 61 16.1 45 7.2 56 56 S 13 20 29.87 1012 10 16.0934 0 0
3:54 pm 15:54 Cloudy 63 17.2 43 6.1 48 48 S 12 19 29.84 1011 10 16.0934 0 0
4:54 pm 16:54 Mostly Cloudy 65 18.3 43 6.1 45 45 S 12 19 29.82 1010 10 16.0934 0 0
5:54 pm 17:54 Cloudy 61 16.1 44 6.7 54 54 SSE 15 24 29.81 1009 10 16.0934 0 0
6:54 pm 18:54 Cloudy with Light Rain 60 15.6 46 7.8 60 60 S 13 20 29.8 1009 10 16.0934 0 0.0254
7:22 pm 19:22 Cloudy with Heavy Rain 54 12.2 50 10 87 87 NW 12 19 29.84 1011 2.5 4.02335 0.04 1.016
7:37 pm 19:37 Cloudy with Rain 53 11.7 50 10 89 89 NW 10 17 29.84 1011 3 4.82802 0.08 2.032
7:51 pm 19:51 Cloudy with Rain 54 12 48 9 82 82 NW 6 9 29.84 1011 2.5 4.02335 0.11 2.794
7:54 pm 19:54 Cloudy with Rain 53 11.7 49 9.4 86 86 NW 6 9 29.84 1010 3 4.82802 0.12 3.048
8:54 pm 20:54 Cloudy with Rain 52 11.1 50 10 93 93 SSE 5 7 29.84 1010 6 9.65604 0.11 2.794
9:54 pm 21:54 Partly Cloudy 51 10.6 49 9.4 92 92 S 8 13 29.84 1011 10 16.0934 0.03 0.762
10:54 pm 22:54 Mostly Clear 50 10 48 8.9 93 93 S 3 6 29.85 1011 10 16.0934 0 0
11:54 pm 23:54 Mostly Clear 48 8.9 47 8.3 96 96 S 6 9 29.85 1011 8 12.87472 0 0

Powered by AerisWeather